,,,PA_Meas_PMT16A,,PR_Meas_QMR101_102,,RH_Meas_QMH101,,SR_Meas_QMS101,,TA_Meas_QMH101,,GenWind,,GenWind,
date,time,status,PA,status,PR,status,RH,status,SR,status,TA,status,DirAvg,status,SpdAvg,
2012-12-24, 00:00:04,VALID,1008.86,VALID,0,VALID,104,VALID,0,VALID,23.3451,VALID,73,VALID,0.950781,
2012-12-24, 00:01:04,VALID,1008.84,VALID,0,VALID,104,VALID,0,VALID,23.3628,VALID,70,VALID,0.70625,
2012-12-24, 00:02:04,VALID,1008.84,VALID,0,VALID,104,VALID,0,VALID,23.3433,VALID,68,VALID,1.0375,
2012-12-24, 00:03:04,VALID,1008.81,VALID,0,VALID,104,VALID,0,VALID,23.3433,VALID,68,VALID,0.772266,
2012-12-24, 00:04:04,VALID,1008.83,VALID,0,VALID,103.985,VALID,0,VALID,23.322,VALID,75,VALID,0.479297,
2012-12-24, 00:05:04,VALID,1008.79,VALID,0,VALID,104,VALID,0,VALID,23.3628,VALID,90,VALID,0.806641,
2012-12-24, 00:06:04,VALID,1008.81,VALID,0,VALID,103.985,VALID,0,VALID,23.3433,VALID,67,VALID,0.366406,
2012-12-24, 00:07:04,VALID,1008.75,VALID,0,VALID,104,VALID,0,VALID,23.3628,VALID,73,VALID,0.580078,
2012-12-24, 00:08:04,VALID,1008.75,VALID,0,VALID,104,VALID,0,VALID,23.3433,VALID,72,VALID,0.732031,
2012-12-24, 00:09:04,VALID,1008.74,VALID,0,VALID,104,VALID,0,VALID,23.3433,VALID,75,VALID,1.04961,
2012-12-24, 00:10:04,VALID,1008.71,VALID,0,VALID,104,VALID,0,VALID,23.3043,VALID,81,VALID,1.35664,
2012-12-24, 00:11:04,VALID,1008.71,VALID,0,VALID,104,VALID,0,VALID,23.3256,VALID,69,VALID,1.17031,
2012-12-24, 00:12:04,VALID,1008.68,VALID,0,VALID,104,VALID,0,VALID,23.3238,VALID,66,VALID,0.703125,
2012-12-24, 00:13:04,VALID,1008.67,VALID,0,VALID,104,VALID,0,VALID,23.2848,VALID,70,VALID,0.811328,
2012-12-24, 00:14:04,VALID,1008.65,VALID,0,VALID,104,VALID,0,VALID,23.2848,VALID,76,VALID,0.679688,
2012-12-24, 00:15:04,VALID,1008.62,VALID,0,VALID,104,VALID,0,VALID,23.2848,VALID,94,VALID,1.33359,
2012-12-24, 00:16:04,VALID,1008.63,VALID,0,VALID,104,VALID,0,VALID,23.2848,VALID,80,VALID,0.840234,
2012-12-24, 00:17:04,VALID,1008.61,VALID,0,VALID,104,VALID,0,VALID,23.2654,VALID,78,VALID,0.850391,
2012-12-24, 00:18:04,VALID,1008.59,VALID,0,VALID,104,VALID,0,VALID,23.3043,VALID,71,VALID,0.0792969,
2012-12-24, 00:19:04,VALID,1008.58,VALID,0,VALID,104,VALID,0,VALID,23.3043,VALID,70,VALID,0.350391,
2012-12-24, 00:20:04,VALID,1008.57,VALID,0,VALID,104,VALID,0,VALID,23.2848,VALID,70,VALID,0.347266,
2012-12-24, 00:21:04,VALID,1008.55,VALID,0,VALID,104,VALID,0,VALID,23.3043,VALID,46,VALID,0.746094,
2012-12-24, 00:22:04,VALID,1008.54,VALID,0,VALID,104,VALID,0,VALID,23.2848,VALID,58,VALID,1.07109,
2012-12-24, 00:23:04,VALID,1008.52,VALID,0,VALID,104,VALID,0,VALID,23.2459,VALID,90,VALID,0.953516,
2012-12-24, 00:24:04,VALID,1008.5,VALID,0,VALID,104,VALID,0,VALID,23.2654,VALID,78,VALID,1.00352,
2012-12-24, 00:25:04,VALID,1008.5,VALID,0,VALID,104,VALID,0,VALID,23.2848,VALID,47,VALID,0.458203,
2012-12-24, 00:26:04,VALID,1008.46,VALID,0,VALID,103.992,VALID,0,VALID,23.2459,VALID,51,VALID,0.382422,
2012-12-24, 00:27:04,VALID,1008.46,VALID,0,VALID,103.992,VALID,0,VALID,23.2848,VALID,51,VALID,0.641016,
2012-12-24, 00:28:04,VALID,1008.44,VALID,0,VALID,104,VALID,0,VALID,23.2831,VALID,51,VALID,0.161719,
2012-12-24, 00:29:04,VALID,1008.43,VALID,0,VALID,103.985,VALID,0,VALID,23.2654,VALID,51,VALID,0.388672,
2012-12-24, 00:30:04,VALID,1008.42,VALID,0,VALID,104,VALID,0,VALID,23.3043,VALID,58,VALID,0.6875,
2012-12-24, 00:31:04,VALID,1008.4,VALID,0,VALID,104,VALID,0,VALID,23.2636,VALID,74,VALID,0.319531,
2012-12-24, 00:32:04,VALID,1008.38,VALID,0,VALID,104,VALID,0,VALID,23.2848,VALID,75,VALID,0.679688,
2012-12-24, 00:33:04,VALID,1008.37,VALID,0,VALID,103.977,VALID,0,VALID,23.2848,VALID,81,VALID,0.835938,
2012-12-24, 00:34:04,VALID,1008.34,VALID,0,VALID,104,VALID,0,VALID,23.2848,VALID,68,VALID,1.00078,
2012-12-24, 00:35:04,VALID,1008.34,VALID,0,VALID,104,VALID,0,VALID,23.2654,VALID,49,VALID,0.576563,
2012-12-24, 00:36:04,VALID,1008.31,VALID,0,VALID,104,VALID,0,VALID,23.2459,VALID,47,VALID,0.392969,
2012-12-24, 00:37:04,VALID,1008.3,VALID,0,VALID,104,VALID,0,VALID,23.2654,VALID,47,VALID,0.354297,
2012-12-24, 00:38:04,VALID,1008.27,VALID,0,VALID,104,VALID,0,VALID,23.2654,VALID,47,VALID,0.366797,
2012-12-24, 00:39:04,VALID,1008.26,VALID,0,VALID,103.985,VALID,0,VALID,23.2654,VALID,47,VALID,0.402734,
2012-12-24, 00:40:04,VALID,1008.25,VALID,0,VALID,104,VALID,0,VALID,23.2848,VALID,47,VALID,0.305859,
2012-12-24, 00:41:04,VALID,1008.23,VALID,0,VALID,103.992,VALID,0,VALID,23.2654,VALID,45,VALID,0.597656,
2012-12-24, 00:42:04,VALID,1008.22,VALID,0,VALID,103.992,VALID,0,VALID,23.2459,VALID,45,VALID,0.581641,
2012-12-24, 00:43:04,VALID,1008.2,VALID,0,VALID,104,VALID,0,VALID,23.2654,VALID,39,VALID,0.592969,
2012-12-24, 00:44:04,VALID,1008.18,VALID,0,VALID,103.97,VALID,0,VALID,23.2459,VALID,31,VALID,0.773438,
2012-12-24, 00:45:04,VALID,1008.19,VALID,0,VALID,103.985,VALID,0,VALID,23.2654,VALID,32,VALID,0.429688,
2012-12-24, 00:46:04,VALID,1008.16,VALID,0,VALID,103.985,VALID,0,VALID,23.2654,VALID,32,VALID,0.376953,
2012-12-24, 00:47:04,VALID,1008.16,VALID,0,VALID,104,VALID,0,VALID,23.2264,VALID,32,VALID,0,
2012-12-24, 00:48:04,VALID,1008.1,VALID,0,VALID,104,VALID,0,VALID,23.1874,VALID,32,VALID,0.0335938,
2012-12-24, 00:49:04,VALID,1008.12,VALID,0,VALID,103.962,VALID,0,VALID,23.2069,VALID,32,VALID,0.106641,
2012-12-24, 00:50:04,VALID,1008.11,VALID,0,VALID,103.992,VALID,0,VALID,23.2459,VALID,32,VALID,0.536328,
2012-12-24, 00:51:04,VALID,1008.1,VALID,0,VALID,103.954,VALID,0,VALID,23.2459,VALID,26,VALID,0.627734,
2012-12-24, 00:52:04,VALID,1008.09,VALID,0,VALID,103.954,VALID,0.112112,VALID,23.2051,VALID,24,VALID,0.470313,
2012-12-24, 00:53:04,VALID,1008.09,VALID,0,VALID,104,VALID,0,VALID,23.2051,VALID,24,VALID,0.657812,
2012-12-24, 00:54:04,VALID,1008.06,VALID,0,VALID,103.992,VALID,0,VALID,23.2264,VALID,24,VALID,0.777344,
2012-12-24, 00:55:04,VALID,1008.07,VALID,0,VALID,104,VALID,0,VALID,23.2069,VALID,27,VALID,0.579297,
2012-12-24, 00:56:04,VALID,1008.06,VALID,0,VALID,103.962,VALID,0,VALID,23.1874,VALID,27,VALID,0.472266,
2012-12-24, 00:57:04,VALID,1008.05,VALID,0,VALID,103.924,VALID,0,VALID,23.2264,VALID,27,VALID,0.333203,
2012-12-24, 00:58:04,VALID,1008.03,VALID,0,VALID,103.992,VALID,0,VALID,23.2069,VALID,41,VALID,0.710547,
2012-12-24, 00:59:04,VALID,1008,VALID,0,VALID,103.985,VALID,0.112112,VALID,23.2069,VALID,41,VALID,0.292969,
2012-12-24, 01:00:04,VALID,1007.96,VALID,0,VALID,104,VALID,0,VALID,23.1662,VALID,40,VALID,0.927344,
2012-12-24, 01:01:04,VALID,1007.96,VALID,0,VALID,103.962,VALID,0,VALID,23.1874,VALID,42,VALID,0.807422,
2012-12-24, 01:02:04,VALID,1007.94,VALID,0,VALID,103.97,VALID,0,VALID,23.1874,VALID,36,VALID,0.395312,
2012-12-24, 01:03:04,VALID,1007.91,VALID,0,VALID,103.977,VALID,0,VALID,23.1662,VALID,27,VALID,0.894141,
2012-12-24, 01:04:04,VALID,1007.92,VALID,0,VALID,103.992,VALID,0,VALID,23.1874,VALID,18,VALID,0.685156,
2012-12-24, 01:05:04,VALID,1007.92,VALID,0,VALID,103.962,VALID,0,VALID,23.1874,VALID,48,VALID,0.610156,
2012-12-24, 01:06:04,VALID,1007.92,VALID,0,VALID,103.962,VALID,0,VALID,23.1874,VALID,48,VALID,0.470313,
2012-12-24, 01:07:04,VALID,1007.9,VALID,0,VALID,103.97,VALID,0,VALID,23.1874,VALID,35,VALID,0.832031,
2012-12-24, 01:08:04,VALID,1007.88,VALID,0,VALID,103.901,VALID,0.112112,VALID,23.1874,VALID,358,VALID,0.529688,
2012-12-24, 01:09:04,VALID,1007.85,VALID,0,VALID,103.962,VALID,0,VALID,23.1679,VALID,39,VALID,0.803906,
2012-12-24, 01:10:04,VALID,1007.85,VALID,0,VALID,103.939,VALID,0.112112,VALID,23.1874,VALID,72,VALID,0.872266,
2012-12-24, 01:11:04,VALID,1007.85,VALID,0,VALID,103.901,VALID,0,VALID,23.2069,VALID,77,VALID,0.263672,
2012-12-24, 01:12:04,VALID,1007.83,VALID,0,VALID,103.924,VALID,0,VALID,23.2264,VALID,62,VALID,0.503125,
2012-12-24, 01:13:04,VALID,1007.84,VALID,0,VALID,103.84,VALID,0,VALID,23.2459,VALID,62,VALID,0.210156,
2012-12-24, 01:14:04,VALID,1007.85,VALID,0,VALID,103.886,VALID,0,VALID,23.2246,VALID,62,VALID,0.575781,
2012-12-24, 01:15:04,VALID,1007.82,VALID,0,VALID,103.87,VALID,0,VALID,23.2459,VALID,46,VALID,0.380469,
2012-12-24, 01:16:04,VALID,1007.81,VALID,0,VALID,103.916,VALID,0,VALID,23.3043,VALID,46,VALID,0.237891,
2012-12-24, 01:17:04,VALID,1007.81,VALID,0,VALID,103.916,VALID,0,VALID,23.2654,VALID,53,VALID,0.716406,
2012-12-24, 01:18:04,VALID,1007.8,VALID,0,VALID,103.924,VALID,0,VALID,23.2654,VALID,54,VALID,0.494141,
2012-12-24, 01:19:04,VALID,1007.78,VALID,0,VALID,103.924,VALID,0,VALID,23.2459,VALID,48,VALID,0.557813,
2012-12-24, 01:20:04,VALID,1007.75,VALID,0,VALID,103.931,VALID,0,VALID,23.2459,VALID,47,VALID,0.576953,
2012-12-24, 01:21:04,VALID,1007.71,VALID,0,VALID,103.97,VALID,0,VALID,23.2051,VALID,44,VALID,0.305078,
2012-12-24, 01:22:04,VALID,1007.68,VALID,0,VALID,103.901,VALID,0,VALID,23.2476,VALID,50,VALID,0.597656,
2012-12-24, 01:23:04,VALID,1007.68,VALID,0,VALID,103.901,VALID,0,VALID,23.2264,VALID,63,VALID,0.928125,
2012-12-24, 01:24:04,VALID,1007.66,VALID,0,VALID,103.947,VALID,0,VALID,23.2459,VALID,52,VALID,0.78125,
2012-12-24, 01:25:04,VALID,1007.65,VALID,0,VALID,104,VALID,0,VALID,23.2264,VALID,31,VALID,0.941797,
2012-12-24, 01:26:04,VALID,1007.65,VALID,0,VALID,103.87,VALID,0,VALID,23.2087,VALID,64,VALID,0.746484,
2012-12-24, 01:27:04,VALID,1007.66,VALID,0,VALID,103.909,VALID,0,VALID,23.2069,VALID,37,VALID,0.702734,
2012-12-24, 01:28:04,VALID,1007.64,VALID,0,VALID,103.916,VALID,0,VALID,23.2069,VALID,37,VALID,0.532812,
2012-12-24, 01:29:04,VALID,1007.66,VALID,0,VALID,103.924,VALID,0,VALID,23.2264,VALID,37,VALID,0.782031,
2012-12-24, 01:30:04,VALID,1007.66,VALID,0,VALID,103.863,VALID,0,VALID,23.2459,VALID,42,VALID,0.476172,
2012-12-24, 01:31:04,VALID,1007.63,VALID,0,VALID,103.825,VALID,0,VALID,23.2459,VALID,42,VALID,0.402734,
2012-12-24, 01:32:04,VALID,1007.64,VALID,0,VALID,103.825,VALID,0,VALID,23.2848,VALID,41,VALID,0.148047,
2012-12-24, 01:33:04,VALID,1007.65,VALID,0,VALID,103.863,VALID,0,VALID,23.3043,VALID,58,VALID,0.550781,
2012-12-24, 01:34:04,VALID,1007.64,VALID,0,VALID,103.855,VALID,0,VALID,23.2848,VALID,63,VALID,0.888672,
2012-12-24, 01:35:04,VALID,1007.6,VALID,0,VALID,103.878,VALID,0,VALID,23.2848,VALID,95,VALID,0.841406,
2012-12-24, 01:36:04,VALID,1007.61,VALID,0,VALID,103.87,VALID,0,VALID,23.2654,VALID,95,VALID,0.376172,
2012-12-24, 01:37:04,VALID,1007.6,VALID,0,VALID,103.863,VALID,0,VALID,23.3043,VALID,65,VALID,0.650781,
2012-12-24, 01:38:04,VALID,1007.62,VALID,0,VALID,103.863,VALID,0,VALID,23.2831,VALID,58,VALID,0.594141,
2012-12-24, 01:39:04,VALID,1007.58,VALID,0,VALID,103.909,VALID,0,VALID,23.2848,VALID,58,VALID,0.190625,
2012-12-24, 01:40:04,VALID,1007.57,VALID,0,VALID,103.855,VALID,0,VALID,23.3043,VALID,58,VALID,0.205469,
2012-12-24, 01:41:04,VALID,1007.57,VALID,0,VALID,103.848,VALID,0,VALID,23.3043,VALID,58,VALID,0,
2012-12-24, 01:42:04,VALID,1007.54,VALID,0,VALID,103.863,VALID,0,VALID,23.2848,VALID,58,VALID,0.394531,
2012-12-24, 01:43:04,VALID,1007.52,VALID,0,VALID,103.848,VALID,0,VALID,23.3238,VALID,58,VALID,0.252344,
2012-12-24, 01:44:04,VALID,1007.52,VALID,0,VALID,103.84,VALID,0,VALID,23.3238,VALID,58,VALID,0.345313,
2012-12-24, 01:45:04,VALID,1007.47,VALID,0,VALID,103.809,VALID,0,VALID,23.322,VALID,68,VALID,0.551562,
2012-12-24, 01:46:04,VALID,1007.48,VALID,0,VALID,103.779,VALID,0,VALID,23.3433,VALID,90,VALID,0.698828,
2012-12-24, 01:47:04,VALID,1007.44,VALID,0,VALID,103.817,VALID,0,VALID,23.3628,VALID,90,VALID,0.685156,
2012-12-24, 01:48:04,VALID,1007.4,VALID,0,VALID,103.87,VALID,0,VALID,23.3238,VALID,90,VALID,0.620703,
2012-12-24, 01:49:04,VALID,1007.41,VALID,0,VALID,103.84,VALID,0,VALID,23.3238,VALID,88,VALID,0.905469,
2012-12-24, 01:50:04,VALID,1007.42,VALID,0,VALID,103.855,VALID,0,VALID,23.3043,VALID,85,VALID,0.770312,
2012-12-24, 01:51:04,VALID,1007.41,VALID,0,VALID,103.855,VALID,0,VALID,23.3043,VALID,85,VALID,0.277344,
2012-12-24, 01:52:04,VALID,1007.4,VALID,0,VALID,103.794,VALID,0,VALID,23.3628,VALID,85,VALID,0.508984,
2012-12-24, 01:53:04,VALID,1007.38,VALID,0,VALID,103.817,VALID,0,VALID,23.3238,VALID,85,VALID,0.410547,
2012-12-24, 01:54:04,VALID,1007.42,VALID,0,VALID,103.764,VALID,0,VALID,23.3628,VALID,85,VALID,0.501172,
2012-12-24, 01:55:04,VALID,1007.39,VALID,0,VALID,103.771,VALID,0,VALID,23.3823,VALID,85,VALID,0.325,
2012-12-24, 01:56:04,VALID,1007.37,VALID,0,VALID,103.855,VALID,0,VALID,23.3628,VALID,85,VALID,0.611719,
2012-12-24, 01:57:04,VALID,1007.37,VALID,0,VALID,103.893,VALID,0,VALID,23.3043,VALID,85,VALID,0.367578,
2012-12-24, 01:58:04,VALID,1007.33,VALID,0,VALID,103.848,VALID,0,VALID,23.3238,VALID,85,VALID,0.579297,
2012-12-24, 01:59:04,VALID,1007.35,VALID,0,VALID,103.87,VALID,0,VALID,23.3043,VALID,91,VALID,0.730859,
2012-12-24, 02:00:04,VALID,1007.32,VALID,0,VALID,103.87,VALID,0,VALID,23.3238,VALID,95,VALID,0.397266,
2012-12-24, 02:01:04,VALID,1007.29,VALID,0,VALID,103.809,VALID,0,VALID,23.3433,VALID,85,VALID,0.69375,
2012-12-24, 02:02:04,VALID,1007.29,VALID,0,VALID,103.863,VALID,0,VALID,23.3238,VALID,85,VALID,0.469922,
2012-12-24, 02:03:04,VALID,1007.25,VALID,0,VALID,103.848,VALID,0,VALID,23.3256,VALID,88,VALID,0.517969,
2012-12-24, 02:04:04,VALID,1007.25,VALID,0,VALID,103.87,VALID,0,VALID,23.3043,VALID,88,VALID,0.503125,
2012-12-24, 02:05:04,VALID,1007.22,VALID,0,VALID,103.855,VALID,0,VALID,23.2848,VALID,88,VALID,0.582422,
2012-12-24, 02:06:04,VALID,1007.23,VALID,0,VALID,103.863,VALID,0,VALID,23.2654,VALID,100,VALID,0.806641,
2012-12-24, 02:07:04,VALID,1007.21,VALID,0,VALID,103.855,VALID,0,VALID,23.2848,VALID,92,VALID,0.357812,
2012-12-24, 02:08:04,VALID,1007.21,VALID,0,VALID,103.825,VALID,0,VALID,23.2654,VALID,95,VALID,0.966016,
2012-12-24, 02:09:04,VALID,1007.19,VALID,0,VALID,103.886,VALID,0,VALID,23.2671,VALID,75,VALID,1.2168,
2012-12-24, 02:10:04,VALID,1007.19,VALID,0,VALID,103.909,VALID,0,VALID,23.2459,VALID,75,VALID,0.768359,
2012-12-24, 02:11:04,VALID,1007.15,VALID,0,VALID,103.848,VALID,0,VALID,23.2459,VALID,97,VALID,1.16836,
2012-12-24, 02:12:04,VALID,1007.18,VALID,0,VALID,103.886,VALID,0,VALID,23.2459,VALID,73,VALID,0.760938,
2012-12-24, 02:13:04,VALID,1007.15,VALID,0,VALID,103.809,VALID,0,VALID,23.2459,VALID,79,VALID,0.794922,
2012-12-24, 02:14:04,VALID,1007.16,VALID,0,VALID,103.832,VALID,0,VALID,23.2264,VALID,78,VALID,0.871094,
2012-12-24, 02:15:04,VALID,1007.12,VALID,0,VALID,103.863,VALID,0,VALID,23.2459,VALID,68,VALID,0.919531,
2012-12-24, 02:16:04,VALID,1007.11,VALID,0,VALID,103.848,VALID,0,VALID,23.2264,VALID,68,VALID,0.79375,
2012-12-24, 02:17:04,VALID,1007.1,VALID,0,VALID,103.825,VALID,0,VALID,23.2264,VALID,67,VALID,1.08945,
2012-12-24, 02:18:04,VALID,1007.1,VALID,0,VALID,103.771,VALID,0,VALID,23.2264,VALID,88,VALID,0.625391,
2012-12-24, 02:19:04,VALID,1007.09,VALID,0,VALID,103.87,VALID,0,VALID,23.2264,VALID,82,VALID,0.919531,
2012-12-24, 02:20:04,VALID,1007.07,VALID,0,VALID,103.84,VALID,0,VALID,23.2069,VALID,73,VALID,1.14883,
2012-12-24, 02:21:04,VALID,1007.06,VALID,0,VALID,103.817,VALID,0,VALID,23.2459,VALID,79,VALID,0.913672,
2012-12-24, 02:22:04,VALID,1007.05,VALID,0,VALID,103.87,VALID,0,VALID,23.2069,VALID,97,VALID,1.03437,
2012-12-24, 02:23:04,VALID,1007.03,VALID,0,VALID,103.794,VALID,0,VALID,23.2051,VALID,98,VALID,0.817187,
2012-12-24, 02:24:04,VALID,1007.01,VALID,0,VALID,103.84,VALID,0,VALID,23.2069,VALID,98,VALID,0.496094,
2012-12-24, 02:25:04,VALID,1007.03,VALID,0,VALID,103.771,VALID,0,VALID,23.2264,VALID,102,VALID,0.886328,
2012-12-24, 02:26:04,VALID,1007.02,VALID,0,VALID,103.794,VALID,0,VALID,23.2264,VALID,101,VALID,0.749609,
2012-12-24, 02:27:04,VALID,1006.99,VALID,0,VALID,103.817,VALID,0,VALID,23.2264,VALID,115,VALID,0.767578,
2012-12-24, 02:28:04,VALID,1006.98,VALID,0,VALID,103.787,VALID,0,VALID,23.2459,VALID,117,VALID,0.542969,
2012-12-24, 02:29:04,VALID,1006.94,VALID,0,VALID,103.825,VALID,0,VALID,23.1874,VALID,127,VALID,1.15313,
2012-12-24, 02:30:04,VALID,1006.97,VALID,0,VALID,103.832,VALID,0,VALID,23.1874,VALID,129,VALID,0.779297,
2012-12-24, 02:31:04,VALID,1006.92,VALID,0,VALID,103.84,VALID,0,VALID,23.2069,VALID,128,VALID,0.648828,
2012-12-24, 02:32:04,VALID,1006.9,VALID,0,VALID,103.855,VALID,0,VALID,23.2069,VALID,113,VALID,0.671094,
2012-12-24, 02:33:04,VALID,1006.91,VALID,0,VALID,103.756,VALID,0,VALID,23.2264,VALID,98,VALID,0.655469,
2012-12-24, 02:34:04,VALID,1006.86,VALID,0,VALID,103.863,VALID,0,VALID,23.2069,VALID,98,VALID,0.791016,
2012-12-24, 02:35:04,VALID,1006.9,VALID,0,VALID,103.825,VALID,0,VALID,23.2069,VALID,91,VALID,0.741016,
2012-12-24, 02:36:04,VALID,1006.91,VALID,0,VALID,103.787,VALID,0,VALID,23.1874,VALID,91,VALID,0.703906,
2012-12-24, 02:37:04,VALID,1006.87,VALID,0,VALID,103.848,VALID,0,VALID,23.1679,VALID,102,VALID,0.785547,
2012-12-24, 02:38:04,VALID,1006.9,VALID,0,VALID,103.817,VALID,0,VALID,23.1874,VALID,123,VALID,0.486719,
2012-12-24, 02:39:04,VALID,1006.88,VALID,0,VALID,103.779,VALID,0,VALID,23.2069,VALID,123,VALID,0.565625,
2012-12-24, 02:40:04,VALID,1006.87,VALID,0,VALID,103.809,VALID,0,VALID,23.2069,VALID,124,VALID,0.285547,
2012-12-24, 02:41:04,VALID,1006.85,VALID,0,VALID,103.84,VALID,0,VALID,23.2069,VALID,123,VALID,0.309766,
2012-12-24, 02:42:04,VALID,1006.86,VALID,0,VALID,103.802,VALID,0,VALID,23.1874,VALID,123,VALID,0.310156,
2012-12-24, 02:43:04,VALID,1006.85,VALID,0,VALID,103.771,VALID,0,VALID,23.1874,VALID,124,VALID,0.166797,
2012-12-24, 02:44:04,VALID,1006.85,VALID,0,VALID,103.764,VALID,0,VALID,23.1874,VALID,124,VALID,0.358203,
2012-12-24, 02:45:04,VALID,1006.83,VALID,0,VALID,103.779,VALID,0,VALID,23.1874,VALID,123,VALID,0.131641,
2012-12-24, 02:46:04,VALID,1006.82,VALID,0,VALID,103.756,VALID,0,VALID,23.1874,VALID,124,VALID,0.448438,
2012-12-24, 02:47:04,VALID,1006.82,VALID,0,VALID,103.817,VALID,0,VALID,23.1467,VALID,123,VALID,0.296094,
2012-12-24, 02:48:04,VALID,1006.78,VALID,0,VALID,103.809,VALID,0,VALID,23.1874,VALID,124,VALID,0.217578,
2012-12-24, 02:49:04,VALID,1006.75,VALID,0,VALID,103.733,VALID,0,VALID,23.1485,VALID,123,VALID,0.464844,
2012-12-24, 02:50:04,VALID,1006.75,VALID,0,VALID,103.794,VALID,0,VALID,23.1679,VALID,123,VALID,0.390625,
2012-12-24, 02:51:04,VALID,1006.74,VALID,0,VALID,103.84,VALID,0,VALID,23.1679,VALID,123,VALID,0.199219,
2012-12-24, 02:52:04,VALID,1006.74,VALID,0,VALID,103.893,VALID,0,VALID,23.129,VALID,158,VALID,0.823438,
2012-12-24, 02:53:04,VALID,1006.72,VALID,0,VALID,103.863,VALID,0,VALID,23.129,VALID,157,VALID,0.508984,
2012-12-24, 02:54:04,VALID,1006.74,VALID,0,VALID,103.802,VALID,0,VALID,23.129,VALID,157,VALID,0.614062,
2012-12-24, 02:55:04,VALID,1006.75,VALID,0,VALID,103.832,VALID,0,VALID,23.129,VALID,137,VALID,0.708594,
2012-12-24, 02:56:04,VALID,1006.74,VALID,0,VALID,103.764,VALID,0,VALID,23.129,VALID,137,VALID,0.421484,
2012-12-24, 02:57:04,VALID,1006.74,VALID,0,VALID,103.764,VALID,0,VALID,23.129,VALID,145,VALID,0.746094,
2012-12-24, 02:58:04,VALID,1006.71,VALID,0,VALID,103.779,VALID,0,VALID,23.129,VALID,145,VALID,0.424609,
2012-12-24, 02:59:04,VALID,1006.72,VALID,0,VALID,103.794,VALID,0,VALID,23.1892,VALID,145,VALID,0.412891,
2012-12-24, 03:00:04,VALID,1006.7,VALID,0,VALID,103.718,VALID,0,VALID,23.1874,VALID,145,VALID,0.294141,
2012-12-24, 03:01:04,VALID,1006.68,VALID,0,VALID,103.756,VALID,0,VALID,23.1485,VALID,145,VALID,0.457422,
2012-12-24, 03:02:04,VALID,1006.68,VALID,0,VALID,103.787,VALID,0,VALID,23.129,VALID,151,VALID,0.447656,
2012-12-24, 03:03:04,VALID,1006.69,VALID,0,VALID,103.733,VALID,0,VALID,23.129,VALID,151,VALID,0.527344,
2012-12-24, 03:04:04,VALID,1006.68,VALID,0,VALID,103.771,VALID,0,VALID,23.129,VALID,178,VALID,0.966797,
2012-12-24, 03:05:04,VALID,1006.66,VALID,0,VALID,103.748,VALID,0,VALID,23.1077,VALID,178,VALID,0.744141,
2012-12-24, 03:06:04,VALID,1006.66,VALID,0,VALID,103.794,VALID,0,VALID,23.1112,VALID,178,VALID,0.742969,
2012-12-24, 03:07:04,VALID,1006.66,VALID,0,VALID,103.764,VALID,0,VALID,23.09,VALID,177,VALID,0.396094,
2012-12-24, 03:08:04,VALID,1006.65,VALID,0,VALID,103.748,VALID,0,VALID,23.1095,VALID,177,VALID,0.009375,
2012-12-24, 03:09:04,VALID,1006.65,VALID,0,VALID,103.741,VALID,0,VALID,23.129,VALID,177,VALID,0.0382813,
2012-12-24, 03:10:04,VALID,1006.65,VALID,0,VALID,103.748,VALID,0,VALID,23.1485,VALID,176,VALID,0.450781,
2012-12-24, 03:11:04,VALID,1006.64,VALID,0,VALID,103.71,VALID,0,VALID,23.1892,VALID,172,VALID,0.294922,
2012-12-24, 03:12:04,VALID,1006.64,VALID,0,VALID,103.718,VALID,0,VALID,23.1679,VALID,119,VALID,0.428516,
2012-12-24, 03:13:04,VALID,1006.64,VALID,0,VALID,103.718,VALID,0,VALID,23.1272,VALID,119,VALID,0.442187,
2012-12-24, 03:14:04,VALID,1006.62,VALID,0,VALID,103.726,VALID,0,VALID,23.1679,VALID,119,VALID,0.104687,
2012-12-24, 03:15:04,VALID,1006.64,VALID,0,VALID,103.718,VALID,0,VALID,23.2069,VALID,119,VALID,0.000390625,
2012-12-24, 03:16:04,VALID,1006.63,VALID,0,VALID,103.764,VALID,0,VALID,23.1874,VALID,119,VALID,0.383594,
2012-12-24, 03:17:04,VALID,1006.63,VALID,0,VALID,103.726,VALID,0,VALID,23.1679,VALID,119,VALID,0.403906,
2012-12-24, 03:18:04,VALID,1006.64,VALID,0,VALID,103.733,VALID,0,VALID,23.2282,VALID,119,VALID,0.0261719,
2012-12-24, 03:19:04,VALID,1006.6,VALID,0,VALID,103.718,VALID,0,VALID,23.2264,VALID,119,VALID,0.0695312,
2012-12-24, 03:20:04,VALID,1006.61,VALID,0,VALID,103.657,VALID,0,VALID,23.2069,VALID,115,VALID,0.756641,
2012-12-24, 03:21:04,VALID,1006.57,VALID,0,VALID,103.71,VALID,0,VALID,23.1874,VALID,106,VALID,0.608984,
2012-12-24, 03:22:04,VALID,1006.58,VALID,0,VALID,103.695,VALID,0,VALID,23.1874,VALID,106,VALID,0.354688,
2012-12-24, 03:23:04,VALID,1006.57,VALID,0,VALID,103.649,VALID,0,VALID,23.2246,VALID,106,VALID,0.355078,
2012-12-24, 03:24:04,VALID,1006.55,VALID,0,VALID,103.634,VALID,0,VALID,23.2459,VALID,92,VALID,0.823828,
2012-12-24, 03:25:04,VALID,1006.53,VALID,0,VALID,103.664,VALID,0,VALID,23.2459,VALID,105,VALID,0.769531,
2012-12-24, 03:26:04,VALID,1006.52,VALID,0,VALID,103.748,VALID,0,VALID,23.2069,VALID,92,VALID,0.730469,
2012-12-24, 03:27:04,VALID,1006.51,VALID,0,VALID,103.787,VALID,0,VALID,23.2069,VALID,116,VALID,0.74375,
2012-12-24, 03:28:04,VALID,1006.52,VALID,0,VALID,103.71,VALID,0,VALID,23.2069,VALID,126,VALID,0.736719,
2012-12-24, 03:29:04,VALID,1006.51,VALID,0,VALID,103.741,VALID,0,VALID,23.2069,VALID,103,VALID,0.613281,
2012-12-24, 03:30:04,VALID,1006.52,VALID,0,VALID,103.68,VALID,0,VALID,23.2671,VALID,91,VALID,0.804297,
2012-12-24, 03:31:04,VALID,1006.51,VALID,0,VALID,103.687,VALID,0,VALID,23.2476,VALID,87,VALID,0.880469,
2012-12-24, 03:32:04,VALID,1006.46,VALID,0,VALID,103.642,VALID,0,VALID,23.2654,VALID,81,VALID,0.990625,
2012-12-24, 03:33:04,VALID,1006.44,VALID,0,VALID,103.703,VALID,0,VALID,23.2069,VALID,81,VALID,1.26875,
2012-12-24, 03:34:04,VALID,1006.44,VALID,0,VALID,103.756,VALID,0,VALID,23.2069,VALID,103,VALID,0.992969,
2012-12-24, 03:35:04,VALID,1006.45,VALID,0,VALID,103.687,VALID,0,VALID,23.2264,VALID,86,VALID,0.592969,
2012-12-24, 03:36:04,VALID,1006.4,VALID,0,VALID,103.71,VALID,0,VALID,23.2476,VALID,79,VALID,0.846484,
2012-12-24, 03:37:04,VALID,1006.41,VALID,0,VALID,103.71,VALID,0,VALID,23.2246,VALID,80,VALID,0.29375,
2012-12-24, 03:38:04,VALID,1006.42,VALID,0,VALID,103.664,VALID,0,VALID,23.2671,VALID,90,VALID,1.07969,
2012-12-24, 03:39:04,VALID,1006.42,VALID,0,VALID,103.764,VALID,0,VALID,23.1874,VALID,93,VALID,0.871875,
2012-12-24, 03:40:04,VALID,1006.43,VALID,0,VALID,103.794,VALID,0,VALID,23.1679,VALID,86,VALID,1.10625,
2012-12-24, 03:41:04,VALID,1006.45,VALID,0,VALID,103.809,VALID,0,VALID,23.1485,VALID,98,VALID,1.03906,
2012-12-24, 03:42:04,VALID,1006.43,VALID,0,VALID,103.748,VALID,0,VALID,23.1679,VALID,95,VALID,0.829297,
2012-12-24, 03:43:04,VALID,1006.44,VALID,0,VALID,103.764,VALID,0,VALID,23.1679,VALID,95,VALID,1.06875,
2012-12-24, 03:44:04,VALID,1006.47,VALID,0,VALID,103.687,VALID,0,VALID,23.1272,VALID,112,VALID,0.747656,
2012-12-24, 03:45:04,VALID,1006.48,VALID,0,VALID,103.695,VALID,0,VALID,23.1485,VALID,112,VALID,0.470313,
2012-12-24, 03:46:04,VALID,1006.48,VALID,0,VALID,103.68,VALID,0,VALID,23.1485,VALID,90,VALID,0.65,
2012-12-24, 03:47:04,VALID,1006.52,VALID,0,VALID,103.748,VALID,0,VALID,23.1485,VALID,90,VALID,0.562891,